IK1YHX Weather Reports


time (UTC)temp
C
wind
direction
speed
KPH
gust
KPH
rain 1hr
cm
rain 24hr
cm
rain mn
cm
humidity
%
barometer
mb
20260507234600 12 158 8.0 9.7 0.00 0.00 0.00 81 1020.3
20260507233544 12 162 4.8 8.0 0.00 0.00 0.00 81 1020.3
20260507232525 12 208 9.7 11.3 0.00 0.00 0.00 81 1020.3
20260507231529 12 227 6.4 8.0 0.00 0.00 0.00 81 1020.4
20260507230538 12 206 4.8 6.4 0.00 0.00 0.00 80 1020.4
20260507225543 12 272 4.8 6.4 0.00 0.00 0.00 79 1020.3
20260507224543 12 230 4.8 6.4 0.00 0.00 0.00 78 1020.3
20260507223537 12 331 6.4 8.0 0.00 0.00 0.00 77 1020.2
20260507222544 13 283 3.2 4.8 0.00 0.00 0.00 77 1020.3
20260507221517 13 247 4.8 4.8 0.00 0.00 0.00 76 1020.1
20260507220548 13 248 4.8 6.4 0.00 0.00 0.00 76 1020.0
20260507215541 13 214 3.2 6.4 0.00 0.00 0.00 76 1020.1
20260507214524 13 260 3.2 4.8 0.00 0.00 0.00 76 1020.0
20260507213524 13 250 1.6 3.2 0.00 0.00 0.00 76 1019.9
20260507212527 13 252 3.2 3.2 0.00 0.00 0.00 75 1019.9
20260507211533 13 266 6.4 8.0 0.00 0.00 0.00 75 1019.8
20260507210557 13 181 3.2 3.2 0.00 0.00 0.00 75 1019.8
20260507205541 13 265 4.8 4.8 0.00 0.00 0.00 75 1019.9
20260507204542 13 240 1.6 1.6 0.00 0.00 0.00 74 1019.9
20260507203543 13 229 3.2 3.2 0.00 0.00 0.00 74 1019.8
20260507202517 13 293 1.6 3.2 0.00 0.00 0.00 74 1019.7
20260507201543 13 199 1.6 3.2 0.00 0.00 0.00 74 1019.5
20260507200517 13 300 4.8 8.0 0.00 0.00 0.00 74 1019.4
20260507195544 13 355 3.2 3.2 0.00 0.00 0.00 75 1019.3
20260507194522 13 219 1.6 3.2 0.00 0.00 0.00 75 1019.1
20260507193518 13 334 3.2 3.2 0.00 0.00 0.00 74 1019.0
20260507192547 13 225 1.6 6.4 0.00 0.00 0.00 74 1019.0
20260507191538 13 252 1.6 3.2 0.00 0.00 0.00 74 1018.7
20260507190523 13 271 1.6 3.2 0.00 0.00 0.00 73 1018.7
20260507185525 14 325 3.2 4.8 0.00 0.00 0.00 73 1018.7
20260507184531 14 270 0.0 3.2 0.00 0.00 0.00 72 1018.6
20260507183524 14 264 3.2 4.8 0.00 0.00 0.00 71 1018.4
20260507182526 15 248 1.6 3.2 0.00 0.00 0.00 70 1018.4
20260507181527 15 203 1.6 3.2 0.00 0.00 0.00 69 1018.4
20260507180531 15 250 3.2 3.2 0.00 0.00 0.00 68 1018.2
20260507175530 15 248 1.6 3.2 0.00 0.00 0.00 67 1018.1
20260507174535 16 0 0.0 3.2 0.00 0.00 0.00 66 1018.1
20260507173538 16 0.0 0.0 0.00 0.00 0.00 65 1018.1
20260507172539 17 0.0 0.0 0.00 0.00 0.00 63 1018.1
20260507171536 17 0.0 0.0 0.00 0.00 0.00 63 1017.9
20260507170538 17 0.0 0.0 0.00 0.00 0.00 62 1018.0
20260507165535 17 0.0 0.0 0.00 0.00 0.00 62 1017.9
20260507164530 17 23 1.6 1.6 0.00 0.00 0.00 62 1017.9
20260507163528 17 0.0 0.0 0.00 0.00 0.00 61 1017.9
20260507162545 17 23 1.6 3.2 0.00 0.00 0.00 61 1017.8
20260507161527 17 0.0 0.0 0.00 0.00 0.00 60 1017.7
20260507160525 17 23 1.6 3.2 0.00 0.00 0.00 59 1017.8
20260507155525 18 23 0.0 1.6 0.00 0.00 0.00 59 1017.6
20260507154528 18 23 1.6 1.6 0.00 0.00 0.00 59 1017.6
20260507153530 18 23 3.2 3.2 0.00 0.00 0.00 58 1017.6
20260507152528 18 23 3.2 6.4 0.00 0.00 0.00 57 1017.6
20260507151556 19 57 3.2 3.2 0.00 0.00 0.00 56 1017.7
20260507150605 20 40 3.2 4.8 0.00 0.00 0.00 56 1017.6
20260507145517 20 23 3.2 4.8 0.00 0.00 0.00 56 1017.6
20260507144525 20 23 6.4 6.4 0.00 0.00 0.00 55 1017.8
20260507143527 20 43 3.2 3.2 0.00 0.00 0.00 57 1017.7
20260507142527 20 58 1.6 3.2 0.00 0.00 0.00 57 1017.8
20260507141530 20 23 1.6 3.2 0.00 0.00 0.00 56 1018.0
20260507140530 20 74 4.8 6.4 0.00 0.00 0.00 58 1018.1
20260507135534 19 72 1.6 3.2 0.00 0.00 0.00 60 1018.0
20260507134536 18 30 3.2 3.2 0.00 0.00 0.00 60 1018.2
20260507133537 18 23 4.8 9.7 0.00 0.00 0.00 60 1018.2
20260507132538 18 23 1.6 1.6 0.00 0.00 0.00 59 1018.2
20260507131539 19 23 3.2 6.4 0.00 0.00 0.00 59 1018.2
20260507130539 19 67 1.6 3.2 0.00 0.00 0.00 59 1018.3
20260507125540 20 48 3.2 3.2 0.00 0.00 0.00 58 1018.3
20260507124540 20 114 1.6 3.2 0.00 0.00 0.00 59 1018.4
20260507123539 20 57 1.6 3.2 0.00 0.00 0.00 60 1018.5
20260507122543 19 79 4.8 6.4 0.00 0.00 0.00 59 1018.5
20260507121548 20 23 1.6 3.2 0.00 0.00 0.00 59 1018.6
20260507120543 19 23 1.6 4.8 0.00 0.00 0.00 59 1018.6
20260507115518 20 23 3.2 4.8 0.00 0.00 0.00 58 1018.7
20260507114540 20 37 4.8 8.0 0.00 0.00 0.00 60 1018.9
20260507113544 19 0 1.6 4.8 0.00 0.00 0.00 64 1018.9
20260507112543 18 23 1.6 3.2 0.00 0.00 0.00 66 1019.0
20260507111543 17 23 8.0 12.9 0.00 0.00 0.00 64 1019.1
20260507110607 18 18 3.2 8.0 0.00 0.00 0.00 64 1019.2
20260507105540 18 51 4.8 4.8 0.00 0.00 0.00 63 1019.3
20260507104545 19 23 6.4 8.0 0.00 0.00 0.00 64 1019.2
20260507103545 18 80 4.8 6.4 0.00 0.00 0.00 65 1019.4
20260507102520 18 293 1.6 3.2 0.00 0.00 0.00 66 1019.4
20260507101517 18 23 4.8 6.4 0.00 0.00 0.00 66 1019.4
20260507100607 18 23 6.4 8.0 0.00 0.00 0.00 68 1019.4
20260507095518 17 23 3.2 4.8 0.00 0.00 0.00 69 1019.4
20260507094524 17 23 11.3 12.9 0.00 0.00 0.00 70 1019.3
20260507093528 17 75 8.0 8.0 0.00 0.00 0.00 70 1019.2
20260507092524 17 23 4.8 8.0 0.00 0.00 0.00 70 1019.1
20260507091542 16 23 4.8 4.8 0.00 0.00 0.00 71 1019.1
20260507090522 16 23 4.8 6.4 0.00 0.00 0.00 71 1019.1
20260507085542 16 23 6.4 9.7 0.00 0.00 0.00 72 1019.1
20260507084523 16 47 4.8 6.4 0.00 0.00 0.00 74 1018.9
20260507083545 16 71 6.4 6.4 0.00 0.00 0.00 74 1019.0
20260507082529 16 38 3.2 6.4 0.00 0.00 0.00 75 1019.0
20260507081531 15 23 3.2 3.2 0.00 0.00 0.00 76 1019.1
20260507080542 15 66 1.6 3.2 0.00 0.00 0.00 76 1019.1
20260507075515 14 158 0.0 3.2 0.00 0.00 0.00 77 1019.1
20260507074518 13 97 1.6 3.2 0.00 0.00 0.00 80 1019.1
20260507073547 11 77 1.6 3.2 0.00 0.00 0.00 78 1019.1
20260507072539 11 225 1.6 4.8 0.00 0.00 0.00 79 1019.1
20260507071544 10 210 4.8 6.4 0.00 0.00 0.00 79 1019.0
20260507070515 10 233 3.2 3.2 0.00 0.00 0.00 79 1019.0
20260507065548 -18 246 4.8 9.7 0.00 0.00 0.00 10 1018.8
20260507064515 -18 220 4.8 6.4 0.00 0.00 0.00 10 1018.9
20260507063517 -18 203 4.8 4.8 0.00 0.00 0.00 10 1018.8
20260507062519 -18 236 3.2 4.8 0.00 0.00 0.00 10 1018.8
20260507061522 -18 265 1.6 3.2 0.00 0.00 0.00 10 1018.9
20260507060548 -18 261 1.6 4.8 0.00 0.00 0.00 10 1018.8
20260507055517 -18 270 4.8 6.4 0.00 0.00 0.00 10 1018.6
20260507054517 -18 261 1.6 3.2 0.00 0.05 0.00 10 1018.6
20260507053521 -18 203 1.6 3.2 0.00 0.10 0.00 10 1018.5
20260507052518 -18 239 3.2 4.8 0.00 0.10 0.00 10 1018.4
20260507051519 -18 236 3.2 6.4 0.00 0.10 0.00 10 1018.3
20260507050523 -18 242 3.2 4.8 0.00 0.15 0.00 10 1018.2
20260507045529 -18 256 6.4 8.0 0.00 0.25 0.00 10 1018.0
20260507044532 -18 208 3.2 3.2 0.00 0.30 0.00 10 1017.9
20260507043538 -18 250 4.8 6.4 0.00 0.41 0.00 10 1017.7
20260507042535 -18 240 9.7 9.7 0.00 0.74 0.00 10 1017.5
20260507041533 -18 308 4.8 4.8 0.00 0.99 0.00 10 1017.5
20260507040536 -18 242 8.0 8.0 0.00 1.04 0.00 10 1017.4
20260507035602 -18 232 8.0 9.7 0.00 1.09 0.00 10 1017.4
20260507034538 -18 328 6.4 8.0 0.00 1.14 0.00 10 1017.3
20260507033536 -18 270 4.8 4.8 0.00 1.24 0.00 10 1017.2
20260507032602 -18 257 3.2 3.2 0.00 1.30 0.00 10 1017.2
20260507031540 -18 270 3.2 3.2 0.00 1.30 0.00 10 1017.2
20260507030542 -18 270 3.2 3.2 0.00 1.30 0.00 10 1017.2
20260507025542 -18 277 8.0 12.9 0.00 1.30 0.00 10 1017.2
20260507024517 -18 232 4.8 6.4 0.00 1.30 0.00 10 1017.1
20260507023609 -18 214 3.2 3.2 0.00 1.30 0.00 10 1017.2
20260507022516 -18 225 3.2 3.2 0.00 1.30 0.00 10 1017.2
20260507021547 -18 261 4.8 6.4 0.00 1.30 0.00 10 1017.4
20260507020544 -18 225 3.2 3.2 0.00 1.30 0.00 10 1017.5
20260507015543 -18 229 3.2 8.0 0.00 1.30 0.00 10 1017.4
20260507014519 -18 266 3.2 4.8 0.00 1.30 0.00 10 1017.2
20260507013520 -18 270 4.8 4.8 0.00 1.30 0.00 10 1017.3
20260507012526 -18 245 3.2 3.2 0.00 1.30 0.00 10 1017.1
20260507011529 -18 237 4.8 4.8 0.00 1.30 0.00 10 1017.1
20260507005531 -18 205 3.2 4.8 0.00 1.30 0.00 10 1016.9
20260507004538 -18 216 6.4 9.7 0.00 1.35 0.00 10 1016.9
20260507003600 -18 270 3.2 6.4 0.00 1.35 0.00 10 1016.9
20260507002545 -18 231 3.2 6.4 0.00 1.35 0.00 10 1016.8
20260507001545 -18 242 3.2 4.8 0.00 1.35 0.00 10 1016.7
20260507000544 -18 218 4.8 4.8 0.00 1.35 0.00 10 1016.6
20260506235517 8 243 4.8 6.4 0.00 1.35 0.00 79 1016.6